Regional Weather Roundup
Issued by NWS

Home | Current Version | Previous Version | Graphics & Text | Print | Product List | Glossary Off
Versions: 1 2 3 4 5 6 7 8 9 10 11 12 13 14 15 16 17 18 19 20 21 22 23 24 25 26 27 28 29 30 31 32 33 34 35 36 37 38 39 40 41 42 43 44 45 46 47 48 49 50

000
ASUS43 KMKX 201021
RWRWI

WISCONSIN REGIONAL WEATHER ROUNDUP
NATIONAL WEATHER SERVICE MILWAUKEE/SULLIVAN WI
400 AM CST MON NOV 20 2017

NOTE: "FAIR" INDICATES FEW OR NO CLOUDS BELOW 12,000 FEET WITH NO
SIGNIFICANT WEATHER AND/OR OBSTRUCTIONS TO VISIBILITY.

WIZ001-002-006>008-014>016-023>028-201100-
NORTHWEST WISCONSIN

CITY           SKY/WX    TMP DP  RH WIND       PRES   REMARKS
SUPERIOR ARPT  CLOUDY    18  16  92 CALM      29.72F
ASHLAND        CLOUDY    19  15  84 CALM      29.73F
HAYWARD        CLOUDY    17  14  88 N3        29.71F
SIREN          CLOUDY    23  21  93 CALM      29.71F
CUMBERLAND     CLOUDY    21  19  93 CALM      29.71F
RICE LAKE      CLOUDY    22  20  93 CALM      29.74F
CHETEK         CLOUDY    19  18  94 CALM      29.74F
LADYSMITH      CLOUDY    24  22  91 SE3       29.76F
EAU CLAIRE     CLOUDY    20  19  96 CALM      29.76F
MENOMONIE      CLOUDY    25  24  93 E3        29.76F
NEW RICHMOND   CLOUDY    29  25  84 S5        29.73F WCI  24
OSCEOLA        CLOUDY    29  26  86 S5        29.74F WCI  24
$$

WIZ003>005-009-010-017-018-201100-
NORTH CENTRAL WISCONSIN

CITY           SKY/WX    TMP DP  RH WIND       PRES   REMARKS
MANITOWISH WTR CLEAR     11  10  99 CALM      29.72F
ARBOR VITAE    CLEAR     17  15  91 CALM      29.72F
WOODRUFF       CLEAR     17  15  91 CALM      29.72F
RHINELANDER    CLOUDY     1  32 100 CALM      29.75F
EAGLE RIVER    CLOUDY    12  11  96 CALM      29.74F
LAND O LAKES   CLOUDY    10   7  91 CALM      29.76F
PHILLIPS       CLOUDY    18  18  98 CALM      29.73F
TOMAHAWK       CLOUDY    15  13  92 CALM      29.77F
MEDFORD        CLOUDY    24  22  89 S6        29.76F WCI  17
MERRILL        CLOUDY    15  14  95 CALM      29.78F
$$

WIZ029-030-035-036-043>047-201100-
CENTRAL WISCONSIN

CITY           SKY/WX    TMP DP  RH WIND       PRES   REMARKS
WAUSAU         CLOUDY    24  20  84 E5        29.79F WCI  18
MOSINEE        CLEAR     23  21  93 CALM      29.80F
MARSHFIELD     CLEAR     22  19  89 S7        29.78F WCI  13
STEVENS POINT  CLEAR     21  21  98 CALM      29.82F
WAUPACA        CLEAR     24  20  87 CALM      29.84F
WAUTOMA        CLEAR     16  14  92 CALM      29.85F
WISC RAPIDS    CLEAR     23  20  88 CALM      29.82F
CAMP DOUGLAS   CLEAR    N/A N/A N/A SW5       29.84F
$$

WIZ011>013-019>022-031-037>040-048>050-201100-
NORTHEAST WISCONSIN

CITY           SKY/WX    TMP DP  RH WIND       PRES   REMARKS
ANTIGO         CLOUDY    21  19  92 CALM      29.78F
SHAWANO        CLEAR     24  20  83 CALM      29.83F
OCONTO         CLEAR     20  17  89 CALM      29.84F
STURGEON BAY   CLEAR     27  22  81 S3        29.86F
GREEN BAY      CLEAR     29  24  82 S5        29.85S WCI  24
MANITOWOC      CLEAR     32  24  72 W10       29.86F WCI  24
APPLETON       CLEAR     28  21  74 SW8       29.82F WCI  20
CLINTONVILLE   CLEAR     23  18  80 CALM      29.83F
OSHKOSH        CLEAR     29  23  78 SW12      29.85F WCI  19
$$

WIZ032>034-041-042-053>061-201100-
SOUTHWEST WISCONSIN

CITY           SKY/WX    TMP DP  RH WIND       PRES   REMARKS
LA CROSSE      CLEAR     34  27  75 SE7       29.82F WCI  28
SPARTA         CLEAR     21  20  97 CALM      29.83F
VIROQUA        CLEAR     31  27  84 S5        29.82F WCI  26
BOSCOBEL       CLOUDY    24  21  88 CALM      29.87F
PRAIRIE DU CHI CLOUDY    35  25  66 CALM      29.86F
PLATTEVILLE    PTCLDY    30  28  91 S8        29.88F WCI  22
$$

WIZ056-057-062-063-064-067-068-201100-
SOUTH CENTRAL WISCONSIN

CITY           SKY/WX    TMP DP  RH WIND       PRES   REMARKS
REEDSBURG      CLEAR     30  24  77 S5        29.85F WCI  25
BARABOO/DELLS  CLEAR     32  24  71 SW3       29.84F
LONE ROCK      CLEAR     26  22  84 CALM      29.88F
MINERAL POINT  CLOUDY    30  28  93 S7        29.87F WCI  23
MADISON        CLEAR     33  25  72 SW8       29.88F WCI  26
MIDDLETON      CLEAR     32  26  76 SW7       29.88F WCI  26
WATERTOWN      CLEAR     26  24  92 S7        29.89F WCI  19
MONROE         CLOUDY    30  25  80 S14       29.90S WCI  20
JANESVILLE     CLOUDY    32  27  80 S3        29.93S
$$

WIZ051-052-058>065-066-070>072-201100-
SOUTHEAST WISCONSIN

CITY           SKY/WX    TMP DP  RH WIND       PRES   REMARKS
MILWAUKEE      PTCLDY    32  24  72 SW15      29.92F WCI  22
WAUKESHA       CLEAR     30  23  74 S5        29.91F WCI  25
MILWAUKEE/TIMM CLEAR     32  21  64 SW9       29.91F WCI  24
RACINE         CLEAR     32  24  72 SW9       29.94F WCI  24
BURLINGTON     CLEAR     32  28  87 S9        29.92F WCI  24
KENOSHA        CLEAR     32  23  69 SW10      29.94F WCI  24
FOND DU LAC    CLEAR     30  22  72 SW12      29.86F WCI  20
SHEBOYGAN      CLEAR     30  24  78 SW6       29.87F WCI  24
WEST BEND      CLEAR     32  23  69 SW7       29.88F WCI  26
JUNEAU         CLEAR     28  23  82 S7        29.89F WCI  20
$$

LSZ147-162-201100-
LAKE SUPERIOR

STATION/POSITION TIME  TEMP    WIND        PRES    WAVE
                       AIR SEA DIR/SP/G            HT/PER
                 (UTC) (F)     (DEG/KT/KT) (MB)    (FT/S)
DEVILS ISLAND    1000   31     170/  6/  8 1007.6F
SAXON HARBOR     0940   22      CALM  /  2 1006.8F
$$

LMZ867-665-643>646-201100-
LAKE MICHIGAN

STATION/POSITION TIME  TEMP    WIND        PRES    WAVE
                       AIR SEA DIR/SP/G            HT/PER
                 (UTC) (F)     (DEG/KT/KT) (MB)    (FT/S)
N MID LAKE BUOY  0950   36 48  250/ 10/ 12 1011.8F   2/ 4
NORTHPORT PIER   0940   31     180/  2/  4 1010.5F
KEWAUNEE LAKESHO 0954   30     280/  7/ 10 1010.0F
SHEBOYGAN LAKESH 1000   33     250/ 14/ 16 1011.9F
PORT WASHINGTON  0940   34     250/  9/ 13 1013.2F
MILWAUKEE LAKESH 1000   34     230/ 14/ 16   N/A
S MID LAKE BUOY  0950   42 49  270/ 23/ 27 1014.0F   5/ 6
KENOSHA   LAKESH 1000   35     230/ 13/ 17 1014.2
$$

TC  - TEMPERATURE IN CELSIUS
VSB - VISIBILITY IN STATUTE MILES
WCI - WIND CHILL INDEX
HX  - HEAT INDEX





USA.gov is the U.S. government's official web portal to all federal, state and local government web resources and services.